| time (UTC) | temp C | wind direction | speed KPH | gust KPH | rain 1hr cm | rain 24hr cm | rain mn cm | humidity % | barometer mb |
| 20260507224311 | 11 | 258 | 0.0 | 1.6 | 0.00 | 0.03 | 0.00 | 84 | 949.6 |
| 20260507223602 | 11 | 258 | 0.0 | 1.6 | 0.00 | 0.03 | 0.00 | 84 | 949.6 |
| 20260507223101 | 11 | 204 | 0.0 | 0.0 | 0.00 | 0.03 | 0.00 | 84 | 949.6 |
| 20260507222602 | 11 | 204 | 0.0 | 3.2 | 0.00 | 0.03 | 0.00 | 82 | 949.7 |
| 20260507222102 | 11 | 204 | 0.0 | 3.2 | 0.00 | 0.03 | 0.00 | 84 | 949.6 |
| 20260507221811 | 10 | 192 | 0.0 | 0.0 | 0.00 | 0.03 | 0.00 | 84 | 949.5 |
| 20260507221101 | 10 | 165 | 0.0 | 0.0 | 0.00 | 0.03 | 0.00 | 83 | 949.6 |
| 20260507220602 | 10 | 164 | 0.0 | 0.0 | 0.00 | 0.03 | 0.00 | 83 | 949.6 |
| 20260507215603 | 11 | 165 | 0.0 | 1.6 | 0.00 | 0.03 | 0.03 | 83 | 949.6 |
| 20260507215102 | 11 | 165 | 0.0 | 1.6 | 0.00 | 0.03 | 0.03 | 82 | 949.5 |
| 20260507214811 | 11 | 227 | 0.0 | 0.0 | 0.00 | 0.03 | 0.03 | 82 | 949.5 |
| 20260507214102 | 11 | 238 | 0.0 | 1.6 | 0.00 | 0.03 | 0.03 | 82 | 949.5 |
| 20260507213602 | 11 | 238 | 0.0 | 1.6 | 0.00 | 0.03 | 0.03 | 82 | 949.6 |
| 20260507213102 | 11 | 238 | 0.0 | 1.6 | 0.00 | 0.03 | 0.03 | 82 | 949.4 |
| 20260507212603 | 11 | 238 | 0.0 | 0.0 | 0.00 | 0.03 | 0.03 | 82 | 949.5 |
| 20260507212102 | 11 | 240 | 0.0 | 1.6 | 0.00 | 0.03 | 0.03 | 82 | 949.4 |
| 20260507211602 | 11 | 238 | 0.0 | 3.2 | 0.00 | 0.03 | 0.03 | 82 | 949.4 |
| 20260507211102 | 11 | 240 | 1.6 | 3.2 | 0.00 | 0.03 | 0.03 | 82 | 949.4 |
| 20260507210602 | 11 | 221 | 1.6 | 3.2 | 0.00 | 0.03 | 0.03 | 79 | 949.2 |
| 20260507205557 | -17 | 250 | 0.0 | 0.0 | 0.00 | 0.03 | 0.03 | 949.2 | |
| 20260507205057 | 12 | 250 | 0.0 | 4.8 | 0.00 | 0.03 | 0.03 | 79 | 949.1 |
| 20260507204557 | 12 | 279 | 3.2 | 6.4 | 0.00 | 0.03 | 0.03 | 79 | 949.1 |
| 20260507204056 | 12 | 210 | 1.6 | 6.4 | 0.00 | 0.03 | 0.03 | 79 | 949.0 |
| 20260507203557 | 12 | 235 | 1.6 | 4.8 | 0.00 | 0.03 | 0.03 | 79 | 948.9 |
| 20260507203057 | 12 | 223 | 1.6 | 4.8 | 0.00 | 0.03 | 0.03 | 79 | 948.9 |
| 20260507202557 | 12 | 251 | 0.0 | 3.2 | 0.00 | 0.03 | 0.03 | 78 | 948.9 |
| 20260507202057 | 12 | 257 | 1.6 | 1.6 | 0.00 | 0.03 | 0.03 | 77 | 948.8 |
| 20260507201556 | 12 | 259 | 1.6 | 1.6 | 0.00 | 0.03 | 0.03 | 77 | 948.8 |
| 20260507201054 | 12 | 120 | 0.0 | 1.6 | 0.00 | 0.03 | 0.03 | 77 | 948.8 |
| 20260507200739 | 12 | 186 | 0.0 | 0.0 | 0.00 | 0.03 | 0.03 | 78 | 948.8 |
| 20260507200056 | 13 | 219 | 0.0 | 1.6 | 0.00 | 0.03 | 0.03 | 77 | 948.7 |
| 20260507200032 | 13 | 219 | 0.0 | 1.6 | 0.00 | 0.03 | 0.03 | 76 | 948.8 |
| 20260507195531 | 13 | 219 | 0.0 | 1.6 | 0.00 | 0.03 | 0.03 | 75 | 948.7 |
| 20260507195056 | 13 | 220 | 0.0 | 1.6 | 0.00 | 0.03 | 0.03 | 75 | 948.7 |
| 20260507195031 | 13 | 220 | 0.0 | 1.6 | 0.00 | 0.03 | 0.03 | 75 | 948.6 |
| 20260507194556 | 13 | 220 | 0.0 | 1.6 | 0.00 | 0.03 | 0.03 | 75 | 948.7 |
| 20260507194531 | 13 | 220 | 0.0 | 4.8 | 0.00 | 0.03 | 0.03 | 75 | 948.6 |
| 20260507194055 | 13 | 220 | 0.0 | 4.8 | 0.00 | 0.03 | 0.03 | 73 | 948.6 |
| 20260507194032 | 13 | 220 | 0.0 | 4.8 | 0.00 | 0.03 | 0.03 | 73 | 948.5 |
| 20260507193739 | 13 | 220 | 1.6 | 4.8 | 0.00 | 0.03 | 0.03 | 73 | 948.5 |
| 20260507193031 | 14 | 159 | 0.0 | 6.4 | 0.00 | 0.03 | 0.03 | 73 | 948.4 |
| 20260507192740 | 14 | 327 | 1.6 | 6.4 | 0.00 | 0.03 | 0.03 | 73 | 948.5 |
| 20260507192055 | 14 | 106 | 0.0 | 6.4 | 0.00 | 0.03 | 0.03 | 72 | 948.5 |
| 20260507192032 | 14 | 106 | 0.0 | 6.4 | 0.00 | 0.03 | 0.03 | 71 | 948.5 |
| 20260507191555 | 15 | 76 | 0.0 | 6.4 | 0.00 | 0.03 | 0.03 | 71 | 948.4 |
| 20260507191531 | 15 | 76 | 0.0 | 6.4 | 0.00 | 0.03 | 0.03 | 70 | 948.4 |
| 20260507191240 | 15 | 264 | 3.2 | 6.4 | 0.00 | 0.03 | 0.03 | 70 | 948.4 |
| 20260507190554 | 15 | 233 | 1.6 | 4.8 | 0.00 | 0.03 | 0.03 | 70 | 948.4 |
| 20260507190531 | 15 | 233 | 1.6 | 4.8 | 0.00 | 0.03 | 0.03 | 70 | 948.5 |
| 20260507190055 | 15 | 224 | 1.6 | 3.2 | 0.00 | 0.03 | 0.03 | 69 | 948.4 |
| 20260507190032 | 15 | 226 | 1.6 | 3.2 | 0.00 | 0.03 | 0.03 | 69 | 948.3 |
| 20260507185739 | 15 | 255 | 0.0 | 6.4 | 0.00 | 0.03 | 0.03 | 67 | 948.2 |
| 20260507185054 | 15 | 278 | 3.2 | 8.0 | 0.00 | 0.03 | 0.03 | 66 | 948.2 |
| 20260507185031 | 15 | 281 | 3.2 | 8.0 | 0.00 | 0.03 | 0.03 | 66 | 948.2 |
| 20260507184554 | 15 | 56 | 6.4 | 11.3 | 0.00 | 0.03 | 0.03 | 65 | 948.1 |
| 20260507184530 | 15 | 62 | 6.4 | 11.3 | 0.00 | 0.03 | 0.03 | 65 | 948.1 |
| 20260507184055 | 15 | 281 | 1.6 | 11.3 | 0.00 | 0.03 | 0.03 | 64 | 948.0 |
| 20260507184032 | 15 | 281 | 1.6 | 11.3 | 0.00 | 0.03 | 0.03 | 65 | 948.1 |
| 20260507183554 | 16 | 233 | 1.6 | 3.2 | 0.00 | 0.03 | 0.03 | 63 | 948.0 |
| 20260507183531 | 16 | 274 | 0.0 | 1.6 | 0.00 | 0.03 | 0.03 | 63 | 948.0 |
| 20260507183031 | 16 | 313 | 0.0 | 8.0 | 0.00 | 0.03 | 0.03 | 62 | 947.9 |
| 20260507182531 | 16 | 310 | 0.0 | 8.0 | 0.00 | 0.03 | 0.03 | 61 | 947.8 |
| 20260507182054 | 16 | 10 | 1.6 | 4.8 | 0.00 | 0.03 | 0.03 | 60 | 947.7 |
| 20260507182031 | 16 | 86 | 0.0 | 4.8 | 0.00 | 0.03 | 0.03 | 60 | 947.8 |
| 20260507181554 | 16 | 278 | 1.6 | 4.8 | 0.00 | 0.03 | 0.03 | 59 | 947.7 |
| 20260507181532 | 16 | 278 | 1.6 | 4.8 | 0.00 | 0.03 | 0.03 | 59 | 947.6 |
| 20260507181054 | 16 | 317 | 1.6 | 4.8 | 0.00 | 0.03 | 0.03 | 59 | 947.7 |
| 20260507181031 | 16 | 317 | 3.2 | 4.8 | 0.00 | 0.03 | 0.03 | 59 | 947.7 |
| 20260507180739 | 16 | 65 | 1.6 | 8.0 | 0.00 | 0.03 | 0.03 | 60 | 947.7 |
| 20260507180053 | 17 | 271 | 1.6 | 9.7 | 0.00 | 0.03 | 0.03 | 59 | 947.7 |
| 20260507180031 | 17 | 269 | 1.6 | 9.7 | 0.00 | 0.03 | 0.03 | 59 | 947.7 |
| 20260507175553 | 17 | 299 | 4.8 | 17.7 | 0.00 | 0.03 | 0.03 | 55 | 947.6 |
| 20260507175531 | 17 | 299 | 3.2 | 17.7 | 0.00 | 0.03 | 0.03 | 55 | 947.7 |
| 20260507175032 | 17 | 238 | 1.6 | 17.7 | 0.00 | 0.03 | 0.03 | 55 | 947.6 |
| 20260507174553 | 17 | 319 | 3.2 | 19.3 | 0.00 | 0.03 | 0.03 | 57 | 947.7 |
| 20260507174532 | 17 | 87 | 1.6 | 20.9 | 0.00 | 0.03 | 0.03 | 56 | 947.6 |
| 20260507174053 | 17 | 162 | 6.4 | 29.0 | 0.00 | 0.03 | 0.03 | 56 | 947.6 |
| 20260507174031 | 17 | 162 | 8.0 | 29.0 | 0.00 | 0.03 | 0.03 | 56 | 947.7 |
| 20260507173552 | 17 | 72 | 19.3 | 29.0 | 0.00 | 0.03 | 0.03 | 57 | 947.6 |
| 20260507173531 | 17 | 62 | 20.9 | 29.0 | 0.00 | 0.03 | 0.03 | 56 | 947.5 |
| 20260507173053 | 17 | 82 | 20.9 | 29.0 | 0.00 | 0.03 | 0.03 | 58 | 947.5 |
| 20260507173031 | 17 | 89 | 20.9 | 29.0 | 0.00 | 0.03 | 0.03 | 57 | 947.5 |
| 20260507172553 | 17 | 93 | 12.9 | 19.3 | 0.00 | 0.03 | 0.03 | 58 | 947.5 |
| 20260507172531 | 17 | 102 | 11.3 | 19.3 | 0.00 | 0.03 | 0.03 | 58 | 947.4 |
| 20260507172053 | 17 | 92 | 6.4 | 11.3 | 0.00 | 0.03 | 0.03 | 61 | 947.5 |
| 20260507172031 | 17 | 51 | 6.4 | 11.3 | 0.00 | 0.03 | 0.03 | 61 | 947.5 |
| 20260507171553 | 17 | 90 | 6.4 | 11.3 | 0.00 | 0.03 | 0.03 | 64 | 947.4 |
| 20260507171529 | 17 | 99 | 6.4 | 11.3 | 0.00 | 0.03 | 0.03 | 64 | 947.4 |
| 20260507171052 | 17 | 82 | 6.4 | 16.1 | 0.00 | 0.03 | 0.03 | 63 | 947.3 |
| 20260507171030 | 17 | 76 | 8.0 | 16.1 | 0.00 | 0.03 | 0.03 | 63 | 947.3 |
| 20260507170552 | 17 | 92 | 9.7 | 17.7 | 0.00 | 0.03 | 0.03 | 61 | 947.3 |
| 20260507170525 | 17 | 66 | 9.7 | 17.7 | 0.00 | 0.03 | 0.03 | 63 | 947.2 |
| 20260507170052 | 17 | 97 | 11.3 | 17.7 | 0.00 | 0.03 | 0.03 | 61 | 947.2 |
| 20260507170024 | 17 | 86 | 9.7 | 17.7 | 0.00 | 0.03 | 0.03 | 63 | 947.2 |
| 20260507165552 | 17 | 75 | 11.3 | 19.3 | 0.00 | 0.03 | 0.03 | 64 | 947.2 |
| 20260507165523 | 17 | 100 | 11.3 | 19.3 | 0.00 | 0.03 | 0.03 | 62 | 947.2 |
| 20260507165052 | 17 | 76 | 12.9 | 19.3 | 0.00 | 0.03 | 0.03 | 61 | 947.2 |
| 20260507165024 | 17 | 82 | 12.9 | 19.3 | 0.00 | 0.03 | 0.03 | 61 | 947.2 |
| 20260507164552 | 17 | 89 | 12.9 | 17.7 | 0.00 | 0.03 | 0.03 | 59 | 947.2 |
| 20260507164520 | 18 | 92 | 11.3 | 17.7 | 0.00 | 0.03 | 0.03 | 59 | 947.3 |
| 20260507164052 | 18 | 59 | 6.4 | 16.1 | 0.00 | 0.03 | 0.03 | 62 | 947.2 |
| 20260507164019 | 18 | 97 | 6.4 | 16.1 | 0.00 | 0.03 | 0.03 | 62 | 947.3 |
| 20260507163552 | 18 | 79 | 8.0 | 16.1 | 0.00 | 0.03 | 0.03 | 55 | 947.2 |
| 20260507163519 | 18 | 63 | 9.7 | 16.1 | 0.00 | 0.03 | 0.03 | 55 | 947.3 |
| 20260507163052 | 18 | 86 | 4.8 | 9.7 | 0.00 | 0.03 | 0.03 | 58 | 947.2 |
| 20260507163011 | 19 | 86 | 3.2 | 8.0 | 0.00 | 0.03 | 0.03 | 59 | 947.1 |
| 20260507162551 | 19 | 92 | 1.6 | 6.4 | 0.00 | 0.03 | 0.03 | 55 | 947.1 |
| 20260507162506 | 19 | 102 | 1.6 | 6.4 | 0.00 | 0.03 | 0.03 | 54 | 947.1 |
| 20260507162052 | 19 | 99 | 1.6 | 6.4 | 0.00 | 0.03 | 0.03 | 54 | 947.2 |
| 20260507162003 | 19 | 99 | 0.0 | 6.4 | 0.00 | 0.03 | 0.03 | 55 | 947.1 |
| 20260507161551 | 19 | 71 | 4.8 | 8.0 | 0.00 | 0.03 | 0.03 | 54 | 947.0 |
| 20260507161503 | 19 | 306 | 3.2 | 8.0 | 0.00 | 0.03 | 0.03 | 52 | 947.0 |
| 20260507161051 | 19 | 344 | 4.8 | 8.0 | 0.00 | 0.03 | 0.03 | 53 | 947.0 |
| 20260507161003 | 19 | 323 | 6.4 | 8.0 | 0.00 | 0.03 | 0.03 | 54 | 947.0 |
| 20260507160551 | 18 | 227 | 0.0 | 14.5 | 0.00 | 0.03 | 0.03 | 52 | 947.0 |
| 20260507160503 | 18 | 278 | 1.6 | 14.5 | 0.00 | 0.03 | 0.03 | 53 | 947.0 |
| 20260507160051 | 18 | 274 | 6.4 | 14.5 | 0.00 | 0.03 | 0.03 | 53 | 947.1 |
| 20260507160003 | 18 | 305 | 8.0 | 14.5 | 0.00 | 0.03 | 0.03 | 53 | 947.1 |
| 20260507155551 | 18 | 303 | 9.7 | 14.5 | 0.00 | 0.03 | 0.03 | 55 | 947.1 |
| 20260507155503 | 18 | 298 | 6.4 | 11.3 | 0.00 | 0.03 | 0.03 | 59 | 947.1 |
| 20260507155051 | 18 | 299 | 6.4 | 14.5 | 0.00 | 0.03 | 0.03 | 57 | 947.2 |
| 20260507155003 | 18 | 312 | 4.8 | 14.5 | 0.00 | 0.03 | 0.03 | 54 | 947.3 |
| 20260507154551 | 18 | 305 | 8.0 | 14.5 | 0.00 | 0.03 | 0.03 | 55 | 947.2 |
| 20260507154502 | 19 | 310 | 6.4 | 14.5 | 0.00 | 0.03 | 0.03 | 55 | 947.2 |
| 20260507154051 | 19 | 292 | 3.2 | 9.7 | 0.00 | 0.03 | 0.03 | 55 | 947.1 |
| 20260507154002 | 19 | 338 | 4.8 | 9.7 | 0.00 | 0.03 | 0.03 | 54 | 947.2 |
| 20260507153550 | 19 | 286 | 3.2 | 8.0 | 0.00 | 0.03 | 0.03 | 59 | 947.2 |
| 20260507153503 | 19 | 305 | 1.6 | 8.0 | 0.00 | 0.03 | 0.03 | 57 | 947.2 |
| 20260507153051 | 18 | 59 | 1.6 | 9.7 | 0.00 | 0.03 | 0.03 | 56 | 947.2 |
| 20260507153002 | 18 | 102 | 1.6 | 11.3 | 0.00 | 0.03 | 0.03 | 58 | 947.2 |
| 20260507152550 | 18 | 25 | 6.4 | 11.3 | 0.00 | 0.03 | 0.03 | 58 | 947.2 |
| 20260507152502 | 18 | 290 | 6.4 | 11.3 | 0.00 | 0.03 | 0.03 | 57 | 947.2 |
| 20260507152050 | 18 | 334 | 6.4 | 11.3 | 0.00 | 0.03 | 0.03 | 59 | 947.2 |
| 20260507152002 | 18 | 306 | 6.4 | 11.3 | 0.00 | 0.03 | 0.03 | 60 | 947.2 |
| 20260507151550 | 18 | 0 | 6.4 | 16.1 | 0.00 | 0.03 | 0.03 | 54 | 947.1 |
| 20260507151502 | 18 | 52 | 6.4 | 16.1 | 0.00 | 0.03 | 0.03 | 54 | 947.1 |
| 20260507151049 | 18 | 79 | 4.8 | 16.1 | 0.00 | 0.03 | 0.03 | 51 | 947.1 |
| 20260507151004 | 18 | 58 | 9.7 | 16.1 | 0.00 | 0.03 | 0.03 | 52 | 947.2 |
| 20260507150550 | 18 | 0 | 4.8 | 16.1 | 0.00 | 0.03 | 0.03 | 55 | 947.1 |
| 20260507150503 | 18 | 314 | 3.2 | 16.1 | 0.00 | 0.03 | 0.03 | 60 | 947.0 |
| 20260507150050 | 18 | 323 | 4.8 | 14.5 | 0.00 | 0.03 | 0.03 | 60 | 947.1 |
| 20260507150003 | 18 | 44 | 4.8 | 14.5 | 0.00 | 0.03 | 0.03 | 60 | 947.1 |
| 20260507145550 | 18 | 268 | 8.0 | 17.7 | 0.00 | 0.03 | 0.03 | 58 | 947.1 |
| 20260507145503 | 18 | 282 | 8.0 | 17.7 | 0.00 | 0.03 | 0.03 | 58 | 947.2 |
| 20260507145049 | 18 | 337 | 8.0 | 17.7 | 0.00 | 0.03 | 0.03 | 59 | 947.3 |
| 20260507145003 | 18 | 38 | 9.7 | 17.7 | 0.00 | 0.03 | 0.03 | 59 | 947.4 |
| 20260507144712 | 18 | 41 | 6.4 | 14.5 | 0.00 | 0.03 | 0.03 | 59 | 947.4 |
| 20260507144049 | 18 | 336 | 4.8 | 11.3 | 0.00 | 0.03 | 0.03 | 63 | 947.5 |
| 20260507144003 | 18 | 85 | 4.8 | 11.3 | 0.00 | 0.03 | 0.03 | 63 | 947.5 |
| 20260507143549 | 18 | 24 | 6.4 | 14.5 | 0.00 | 0.03 | 0.03 | 62 | 947.6 |
| 20260507143502 | 18 | 310 | 8.0 | 14.5 | 0.00 | 0.03 | 0.03 | 63 | 947.6 |
| 20260507143049 | 17 | 348 | 9.7 | 14.5 | 0.00 | 0.03 | 0.03 | 61 | 947.7 |
| 20260507143002 | 17 | 333 | 9.7 | 14.5 | 0.00 | 0.03 | 0.03 | 64 | 947.7 |
| 20260507142549 | 17 | 295 | 3.2 | 11.3 | 0.00 | 0.03 | 0.03 | 61 | 947.7 |
| 20260507142502 | 17 | 221 | 3.2 | 11.3 | 0.00 | 0.03 | 0.03 | 60 | 947.8 |
| 20260507142049 | 17 | 251 | 6.4 | 19.3 | 0.00 | 0.03 | 0.03 | 65 | 947.9 |
| 20260507142003 | 17 | 241 | 4.8 | 19.3 | 0.00 | 0.03 | 0.03 | 65 | 948.0 |
| 20260507141549 | 17 | 220 | 6.4 | 19.3 | 0.00 | 0.03 | 0.03 | 60 | 948.0 |
| 20260507141502 | 17 | 243 | 8.0 | 19.3 | 0.00 | 0.03 | 0.03 | 59 | 948.1 |
| 20260507141048 | 17 | 38 | 3.2 | 19.3 | 0.00 | 0.03 | 0.03 | 60 | 948.1 |
| 20260507141003 | 17 | 38 | 6.4 | 19.3 | 0.00 | 0.03 | 0.03 | 60 | 948.0 |
| 20260507140549 | 17 | 347 | 12.9 | 25.7 | 0.00 | 0.03 | 0.03 | 62 | 948.1 |
| 20260507140502 | 17 | 324 | 11.3 | 25.7 | 0.00 | 0.03 | 0.03 | 66 | 948.1 |
| 20260507140211 | 17 | 37 | 9.7 | 25.7 | 0.00 | 0.03 | 0.03 | 62 | 948.2 |
| 20260507135548 | 16 | 41 | 14.5 | 20.9 | 0.00 | 0.03 | 0.03 | 61 | 948.4 |
| 20260507135503 | 17 | 17 | 12.9 | 20.9 | 0.00 | 0.03 | 0.03 | 63 | 948.3 |
| 20260507135048 | 17 | 55 | 11.3 | 43.5 | 0.00 | 0.03 | 0.03 | 64 | 948.2 |
| 20260507135004 | 17 | 55 | 11.3 | 43.5 | 0.00 | 0.03 | 0.03 | 64 | 948.3 |
| 20260507134711 | 17 | 350 | 14.5 | 43.5 | 0.00 | 0.03 | 0.03 | 62 | 948.3 |
| 20260507134047 | 17 | 120 | 14.5 | 38.6 | 0.00 | 0.03 | 0.03 | 61 | 948.2 |
| 20260507134003 | 17 | 110 | 12.9 | 38.6 | 0.00 | 0.03 | 0.03 | 64 | 948.1 |
| 20260507133548 | 17 | 62 | 16.1 | 38.6 | 0.00 | 0.03 | 0.03 | 61 | 948.1 |
| 20260507133502 | 17 | 83 | 8.0 | 38.6 | 0.00 | 0.03 | 0.03 | 62 | 948.1 |
| 20260507133212 | 17 | 125 | 11.3 | 33.8 | 0.00 | 0.03 | 0.03 | 65 | 948.1 |
| 20260507132712 | 17 | 89 | 8.0 | 35.4 | 0.00 | 0.03 | 0.03 | 63 | 948.3 |
| 20260507132047 | 17 | 78 | 19.3 | 35.4 | 0.00 | 0.03 | 0.03 | 60 | 948.3 |
| 20260507132002 | 17 | 83 | 20.9 | 35.4 | 0.00 | 0.03 | 0.03 | 60 | 948.2 |
| 20260507131547 | 17 | 89 | 12.9 | 29.0 | 0.00 | 0.03 | 0.03 | 60 | 948.2 |
| 20260507131503 | 17 | 78 | 6.4 | 22.5 | 0.00 | 0.03 | 0.03 | 58 | 948.3 |
| 20260507131212 | 17 | 293 | 4.8 | 14.5 | 0.00 | 0.03 | 0.03 | 58 | 948.3 |
| 20260507130547 | 17 | 69 | 4.8 | 20.9 | 0.00 | 0.03 | 0.03 | 58 | 948.2 |
| 20260507130503 | 17 | 51 | 6.4 | 20.9 | 0.00 | 0.03 | 0.03 | 59 | 948.2 |
| 20260507130048 | 17 | 54 | 9.7 | 20.9 | 0.00 | 0.03 | 0.03 | 63 | 948.3 |
| 20260507130003 | 17 | 71 | 11.3 | 20.9 | 0.00 | 0.03 | 0.03 | 63 | 948.3 |
| 20260507125547 | 17 | 258 | 12.9 | 19.3 | 0.00 | 0.03 | 0.03 | 60 | 948.3 |
| 20260507125502 | 17 | 317 | 11.3 | 19.3 | 0.00 | 0.03 | 0.03 | 59 | 948.3 |
| 20260507125047 | 17 | 303 | 4.8 | 14.5 | 0.00 | 0.03 | 0.03 | 56 | 948.4 |
| 20260507125002 | 17 | 272 | 4.8 | 14.5 | 0.00 | 0.03 | 0.03 | 56 | 948.4 |
| 20260507124547 | 17 | 320 | 3.2 | 9.7 | 0.00 | 0.03 | 0.03 | 61 | 948.5 |
| 20260507124502 | 17 | 265 | 1.6 | 9.7 | 0.00 | 0.03 | 0.03 | 61 | 948.5 |
| 20260507124047 | 17 | 333 | 3.2 | 8.0 | 0.00 | 0.03 | 0.03 | 62 | 948.4 |
| 20260507124003 | 17 | 75 | 1.6 | 6.4 | 0.00 | 0.03 | 0.03 | 66 | 948.5 |
| 20260507123546 | 17 | 296 | 3.2 | 14.5 | 0.00 | 0.03 | 0.03 | 61 | 948.5 |
| 20260507123503 | 17 | 306 | 3.2 | 14.5 | 0.00 | 0.03 | 0.03 | 61 | 948.5 |
| 20260507123046 | 17 | 131 | 4.8 | 17.7 | 0.00 | 0.03 | 0.03 | 63 | 948.5 |
| 20260507123003 | 18 | 131 | 6.4 | 17.7 | 0.00 | 0.03 | 0.03 | 63 | 948.5 |
| 20260507122546 | 18 | 73 | 11.3 | 17.7 | 0.00 | 0.03 | 0.03 | 61 | 948.5 |
| 20260507122502 | 18 | 41 | 11.3 | 17.7 | 0.00 | 0.03 | 0.03 | 62 | 948.5 |
| 20260507122046 | 18 | 314 | 4.8 | 9.7 | 0.00 | 0.03 | 0.03 | 62 | 948.5 |
| 20260507122002 | 18 | 321 | 3.2 | 9.7 | 0.00 | 0.03 | 0.03 | 63 | 948.5 |
| 20260507121546 | 18 | 350 | 4.8 | 19.3 | 0.00 | 0.03 | 0.03 | 61 | 948.6 |
| 20260507121502 | 18 | 24 | 4.8 | 19.3 | 0.00 | 0.03 | 0.03 | 62 | 948.5 |
| 20260507121045 | 18 | 344 | 3.2 | 19.3 | 0.00 | 0.03 | 0.03 | 62 | 948.7 |
| 20260507121002 | 18 | 82 | 4.8 | 19.3 | 0.00 | 0.03 | 0.03 | 60 | 948.7 |
| 20260507120546 | 18 | 35 | 6.4 | 16.1 | 0.00 | 0.03 | 0.03 | 61 | 948.7 |
| 20260507120502 | 18 | 303 | 6.4 | 11.3 | 0.00 | 0.03 | 0.03 | 61 | 948.7 |
| 20260507120046 | 17 | 66 | 4.8 | 14.5 | 0.00 | 0.03 | 0.03 | 58 | 948.7 |
| 20260507120002 | 17 | 1 | 4.8 | 14.5 | 0.00 | 0.03 | 0.03 | 58 | 948.7 |
| 20260507115545 | 17 | 62 | 9.7 | 17.7 | 0.00 | 0.03 | 0.03 | 61 | 948.8 |
| 20260507115502 | 17 | 298 | 9.7 | 17.7 | 0.00 | 0.03 | 0.03 | 60 | 948.9 |
| 20260507115046 | 18 | 289 | 6.4 | 17.7 | 0.00 | 0.03 | 0.03 | 59 | 948.9 |
| 20260507115002 | 18 | 292 | 6.4 | 17.7 | 0.00 | 0.03 | 0.03 | 59 | 948.9 |
| 20260507114545 | 18 | 14 | 4.8 | 19.3 | 0.00 | 0.03 | 0.03 | 62 | 948.8 |
| 20260507114502 | 18 | 75 | 3.2 | 19.3 | 0.00 | 0.03 | 0.03 | 60 | 948.8 |
| 20260507114045 | 18 | 295 | 4.8 | 19.3 | 0.00 | 0.03 | 0.03 | 64 | 948.9 |
| 20260507114002 | 18 | 336 | 6.4 | 19.3 | 0.00 | 0.03 | 0.03 | 64 | 948.9 |
| 20260507113545 | 18 | 47 | 8.0 | 16.1 | 0.00 | 0.03 | 0.03 | 62 | 948.8 |
| 20260507113503 | 18 | 275 | 9.7 | 16.1 | 0.00 | 0.03 | 0.03 | 62 | 948.9 |
| 20260507113211 | 18 | 21 | 8.0 | 11.3 | 0.00 | 0.03 | 0.03 | 65 | 948.9 |
| 20260507112545 | 17 | 336 | 8.0 | 16.1 | 0.00 | 0.03 | 0.03 | 64 | 948.8 |
| 20260507112502 | 17 | 320 | 8.0 | 16.1 | 0.00 | 0.03 | 0.03 | 64 | 948.9 |
| 20260507112045 | 17 | 16 | 11.3 | 16.1 | 0.00 | 0.03 | 0.03 | 63 | 949.0 |
| 20260507112002 | 17 | 358 | 9.7 | 16.1 | 0.00 | 0.03 | 0.03 | 65 | 949.0 |
| 20260507111545 | 17 | 310 | 6.4 | 16.1 | 0.00 | 0.03 | 0.03 | 63 | 949.0 |
| 20260507111503 | 17 | 285 | 4.8 | 16.1 | 0.00 | 0.03 | 0.03 | 64 | 948.9 |
| 20260507111211 | 17 | 309 | 4.8 | 16.1 | 0.00 | 0.03 | 0.03 | 66 | 949.0 |
| 20260507110711 | 17 | 312 | 4.8 | 11.3 | 0.00 | 0.03 | 0.03 | 65 | 949.0 |
| 20260507110046 | 17 | 313 | 4.8 | 11.3 | 0.00 | 0.03 | 0.03 | 65 | 949.1 |
| 20260507110002 | 17 | 314 | 4.8 | 11.3 | 0.00 | 0.03 | 0.03 | 65 | 949.0 |
| 20260507105711 | 17 | 288 | 1.6 | 11.3 | 0.00 | 0.03 | 0.03 | 64 | 949.1 |
| 20260507105045 | 17 | 306 | 9.7 | 11.3 | 0.00 | 0.03 | 0.03 | 65 | 949.1 |
| 20260507105002 | 17 | 313 | 9.7 | 11.3 | 0.00 | 0.03 | 0.03 | 65 | 949.1 |
| 20260507104544 | 17 | 312 | 3.2 | 11.3 | 0.00 | 0.03 | 0.03 | 68 | 949.1 |
| 20260507104503 | 17 | 79 | 0.0 | 11.3 | 0.00 | 0.03 | 0.03 | 68 | 949.1 |
| 20260507104044 | 16 | 303 | 4.8 | 11.3 | 0.00 | 0.03 | 0.03 | 65 | 949.2 |
| 20260507104003 | 16 | 303 | 6.4 | 11.3 | 0.00 | 0.03 | 0.03 | 66 | 949.2 |
| 20260507103544 | 16 | 288 | 6.4 | 9.7 | 0.00 | 0.03 | 0.03 | 65 | 949.2 |
| 20260507103502 | 16 | 258 | 6.4 | 9.7 | 0.00 | 0.03 | 0.03 | 68 | 949.3 |
| 20260507103044 | 16 | 272 | 3.2 | 6.4 | 0.00 | 0.03 | 0.03 | 66 | 949.3 |
| 20260507103003 | 16 | 269 | 3.2 | 6.4 | 0.00 | 0.03 | 0.03 | 66 | 949.3 |
| 20260507102543 | 16 | 221 | 1.6 | 4.8 | 0.00 | 0.03 | 0.03 | 69 | 949.3 |
| 20260507102502 | 16 | 234 | 1.6 | 4.8 | 0.00 | 0.03 | 0.03 | 69 | 949.2 |
| 20260507102044 | 16 | 319 | 1.6 | 9.7 | 0.00 | 0.03 | 0.03 | 66 | 949.3 |
| 20260507102002 | 16 | 299 | 1.6 | 9.7 | 0.00 | 0.03 | 0.03 | 66 | 949.3 |
| 20260507101711 | 16 | 286 | 1.6 | 9.7 | 0.00 | 0.03 | 0.03 | 67 | 949.4 |
| 20260507101043 | 15 | 282 | 4.8 | 11.3 | 0.00 | 0.03 | 0.03 | 68 | 949.5 |
| 20260507101002 | 15 | 295 | 3.2 | 11.3 | 0.00 | 0.03 | 0.03 | 68 | 949.5 |
| 20260507100543 | 15 | 240 | 6.4 | 11.3 | 0.00 | 0.03 | 0.03 | 70 | 949.6 |
| 20260507100502 | 15 | 274 | 6.4 | 11.3 | 0.00 | 0.03 | 0.03 | 71 | 949.6 |
| 20260507100044 | 15 | 271 | 3.2 | 11.3 | 0.00 | 0.03 | 0.03 | 69 | 949.6 |
| 20260507100002 | 15 | 309 | 4.8 | 11.3 | 0.00 | 0.03 | 0.03 | 69 | 949.6 |
| 20260507095543 | 15 | 331 | 3.2 | 9.7 | 0.00 | 0.03 | 0.03 | 71 | 949.7 |
| 20260507095502 | 15 | 44 | 3.2 | 9.7 | 0.00 | 0.03 | 0.03 | 70 | 949.7 |
| 20260507095043 | 15 | 336 | 6.4 | 9.7 | 0.00 | 0.03 | 0.03 | 70 | 949.7 |
| 20260507095002 | 15 | 323 | 4.8 | 9.7 | 0.00 | 0.03 | 0.03 | 70 | 949.8 |
| 20260507094543 | 15 | 212 | 3.2 | 8.0 | 0.00 | 0.03 | 0.03 | 71 | 949.8 |
| 20260507094502 | 15 | 261 | 3.2 | 11.3 | 0.00 | 0.03 | 0.03 | 71 | 949.8 |
| 20260507094043 | 15 | 262 | 3.2 | 11.3 | 0.00 | 0.03 | 0.03 | 74 | 949.9 |
| 20260507094001 | 14 | 288 | 4.8 | 11.3 | 0.00 | 0.03 | 0.03 | 74 | 949.8 |
| 20260507093543 | 14 | 234 | 3.2 | 11.3 | 0.00 | 0.03 | 0.03 | 71 | 949.8 |
| 20260507093503 | 14 | 220 | 3.2 | 9.7 | 0.00 | 0.03 | 0.03 | 73 | 949.8 |
| 20260507093042 | 14 | 289 | 4.8 | 9.7 | 0.00 | 0.03 | 0.03 | 71 | 949.9 |
| 20260507093002 | 14 | 231 | 4.8 | 9.7 | 0.00 | 0.03 | 0.03 | 72 | 949.9 |
| 20260507092542 | 13 | 248 | 3.2 | 9.7 | 0.00 | 0.03 | 0.03 | 75 | 949.9 |
| 20260507092502 | 13 | 289 | 3.2 | 9.7 | 0.00 | 0.03 | 0.03 | 76 | 949.9 |
| 20260507092211 | 13 | 264 | 3.2 | 9.7 | 0.00 | 0.03 | 0.03 | 75 | 949.9 |
| 20260507091542 | 13 | 248 | 3.2 | 9.7 | 0.00 | 0.03 | 0.03 | 75 | 950.0 |
| 20260507091502 | 13 | 279 | 3.2 | 9.7 | 0.00 | 0.03 | 0.03 | 73 | 950.0 |
| 20260507091042 | 13 | 226 | 3.2 | 9.7 | 0.00 | 0.03 | 0.03 | 76 | 950.0 |
| 20260507091003 | 13 | 268 | 3.2 | 9.7 | 0.00 | 0.03 | 0.03 | 76 | 949.9 |
| 20260507090542 | 12 | 214 | 4.8 | 9.7 | 0.00 | 0.03 | 0.03 | 76 | 949.9 |
| 20260507090503 | 12 | 224 | 4.8 | 9.7 | 0.00 | 0.03 | 0.03 | 76 | 950.0 |
| 20260507090042 | 12 | 290 | 6.4 | 8.0 | 0.00 | 0.03 | 0.03 | 76 | 949.9 |
| 20260507090002 | 12 | 258 | 6.4 | 8.0 | 0.00 | 0.03 | 0.03 | 76 | 950.0 |
| 20260507085541 | 12 | 237 | 4.8 | 8.0 | 0.00 | 0.03 | 0.03 | 78 | 950.0 |
| 20260507085503 | 12 | 248 | 4.8 | 8.0 | 0.00 | 0.03 | 0.03 | 78 | 950.0 |
| 20260507085041 | 12 | 295 | 3.2 | 8.0 | 0.00 | 0.03 | 0.03 | 82 | 950.0 |
| 20260507085002 | 11 | 292 | 3.2 | 8.0 | 0.00 | 0.03 | 0.03 | 80 | 950.0 |
| 20260507084542 | 11 | 278 | 4.8 | 8.0 | 0.00 | 0.03 | 0.03 | 81 | 950.0 |
| 20260507084503 | 11 | 279 | 6.4 | 8.0 | 0.00 | 0.03 | 0.03 | 81 | 950.0 |
| 20260507084212 | 11 | 285 | 4.8 | 6.4 | 0.00 | 0.03 | 0.03 | 83 | 950.0 |
| 20260507083710 | 11 | 275 | 0.0 | 3.2 | 0.00 | 0.03 | 0.03 | 86 | 950.0 |
| 20260507083041 | 11 | 268 | 0.0 | 0.0 | 0.00 | 0.03 | 0.03 | 87 | 950.0 |
| 20260507083003 | 11 | 268 | 0.0 | 0.0 | 0.00 | 0.03 | 0.03 | 87 | 950.0 |
| 20260507082541 | 10 | 269 | 0.0 | 0.0 | 0.00 | 0.03 | 0.03 | 90 | 950.0 |
| 20260507082502 | 10 | 269 | 0.0 | 0.0 | 0.00 | 0.03 | 0.03 | 90 | 950.0 |
| 20260507082041 | 10 | 269 | 0.0 | 0.0 | 0.00 | 0.03 | 0.03 | 92 | 950.0 |
| 20260507082002 | 10 | 269 | 0.0 | 0.0 | 0.00 | 0.03 | 0.03 | 92 | 950.0 |
| 20260507081541 | 9 | 269 | 0.0 | 0.0 | 0.00 | 0.03 | 0.03 | 93 | 950.0 |
| 20260507081502 | 9 | 269 | 0.0 | 0.0 | 0.00 | 0.03 | 0.03 | 94 | 950.1 |
| 20260507081211 | 8 | 269 | 0.0 | 0.0 | 0.00 | 0.03 | 0.03 | 95 | 950.0 |
| 20260507080541 | 8 | 269 | 0.0 | 3.2 | 0.00 | 0.03 | 0.03 | 96 | 950.0 |
| 20260507080503 | 8 | 269 | 0.0 | 3.2 | 0.00 | 0.03 | 0.03 | 96 | 950.1 |
| 20260507080041 | 8 | 269 | 0.0 | 3.2 | 0.00 | 0.03 | 0.03 | 96 | 950.1 |
| 20260507080003 | 8 | 269 | 0.0 | 3.2 | 0.00 | 0.03 | 0.03 | 96 | 950.1 |
| 20260507075711 | 8 | 268 | 1.6 | 3.2 | 0.00 | 0.03 | 0.03 | 97 | 950.1 |
| 20260507075041 | 7 | 276 | 0.0 | 0.0 | 0.00 | 0.03 | 0.03 | 97 | 950.1 |
| 20260507075003 | 7 | 282 | 0.0 | 0.0 | 0.00 | 0.03 | 0.03 | 97 | 950.1 |
| 20260507074540 | 7 | 283 | 0.0 | 1.6 | 0.00 | 0.03 | 0.03 | 97 | 950.1 |
| 20260507074502 | 7 | 283 | 0.0 | 1.6 | 0.00 | 0.03 | 0.03 | 97 | 950.1 |
| 20260507074040 | 7 | 283 | 0.0 | 3.2 | 0.00 | 0.03 | 0.03 | 97 | 950.1 |
| 20260507074002 | 7 | 283 | 0.0 | 3.2 | 0.00 | 0.03 | 0.03 | 97 | 950.2 |
| 20260507073540 | 6 | 282 | 0.0 | 3.2 | 0.00 | 0.03 | 0.03 | 96 | 950.2 |
| 20260507073502 | 6 | 282 | 0.0 | 3.2 | 0.00 | 0.03 | 0.03 | 96 | 950.2 |
| 20260507073040 | 6 | 259 | 3.2 | 3.2 | 0.00 | 0.03 | 0.03 | 96 | 950.3 |
| 20260507073002 | 6 | 259 | 3.2 | 3.2 | 0.00 | 0.03 | 0.03 | 96 | 950.3 |
| 20260507072711 | 6 | 259 | 0.0 | 3.2 | 0.00 | 0.03 | 0.03 | 96 | 950.3 |
| 20260507072040 | 6 | 259 | 1.6 | 3.2 | 0.00 | 0.03 | 0.03 | 96 | 950.2 |
| 20260507072002 | 6 | 259 | 1.6 | 3.2 | 0.00 | 0.03 | 0.03 | 96 | 950.2 |
| 20260507071540 | 5 | 259 | 0.0 | 3.2 | 0.00 | 0.03 | 0.03 | 96 | 950.1 |
| 20260507071501 | 5 | 259 | 0.0 | 3.2 | 0.00 | 0.03 | 0.03 | 96 | 950.1 |
| 20260507071211 | 5 | 259 | 1.6 | 3.2 | 0.00 | 0.03 | 0.03 | 96 | 950.2 |
| 20260507070540 | 5 | 171 | 0.0 | 0.0 | 0.00 | 0.03 | 0.03 | 96 | 950.1 |
| 20260507070502 | 5 | 171 | 0.0 | 0.0 | 0.00 | 0.03 | 0.03 | 96 | 950.1 |
| 20260507070039 | 5 | 171 | 0.0 | 0.0 | 0.00 | 0.03 | 0.03 | 96 | 950.1 |
| 20260507070003 | 5 | 171 | 0.0 | 0.0 | 0.00 | 0.03 | 0.03 | 97 | 950.1 |
| 20260507065539 | 5 | 171 | 0.0 | 0.0 | 0.00 | 0.03 | 0.03 | 97 | 950.1 |
| 20260507065503 | 5 | 171 | 0.0 | 0.0 | 0.00 | 0.03 | 0.03 | 97 | 950.1 |
| 20260507065039 | 5 | 168 | 0.0 | 1.6 | 0.00 | 0.03 | 0.03 | 97 | 950.2 |
| 20260507065003 | 5 | 168 | 0.0 | 1.6 | 0.00 | 0.03 | 0.03 | 97 | 950.1 |
| 20260507064539 | 5 | 168 | 0.0 | 1.6 | 0.00 | 0.03 | 0.03 | 97 | 950.1 |
| 20260507064501 | 5 | 168 | 0.0 | 1.6 | 0.00 | 0.03 | 0.03 | 97 | 950.1 |
| 20260507064039 | 5 | 168 | 0.0 | 1.6 | 0.00 | 0.03 | 0.03 | 97 | 950.1 |
| 20260507064003 | 5 | 168 | 0.0 | 1.6 | 0.00 | 0.03 | 0.03 | 97 | 950.1 |
| 20260507063539 | 4 | 168 | 0.0 | 1.6 | 0.00 | 0.03 | 0.03 | 97 | 950.2 |
| 20260507063502 | 4 | 168 | 0.0 | 1.6 | 0.00 | 0.03 | 0.03 | 97 | 950.2 |
| 20260507063039 | 3 | 168 | 0.0 | 0.0 | 0.00 | 0.03 | 0.03 | 97 | 950.1 |
| 20260507063002 | 3 | 168 | 0.0 | 0.0 | 0.00 | 0.03 | 0.03 | 97 | 950.1 |
| 20260507062538 | 3 | 168 | 0.0 | 0.0 | 0.00 | 0.03 | 0.03 | 97 | 950.1 |
| 20260507062502 | 3 | 168 | 0.0 | 0.0 | 0.00 | 0.03 | 0.03 | 97 | 950.1 |
| 20260507062039 | 3 | 166 | 0.0 | 0.0 | 0.00 | 0.03 | 0.03 | 97 | 950.1 |
| 20260507062003 | 3 | 166 | 0.0 | 0.0 | 0.00 | 0.03 | 0.03 | 97 | 950.1 |
| 20260507061538 | 3 | 166 | 0.0 | 0.0 | 0.00 | 0.03 | 0.03 | 97 | 950.3 |
| 20260507061504 | 3 | 166 | 0.0 | 0.0 | 0.00 | 0.03 | 0.03 | 97 | 950.1 |
| 20260507061038 | 3 | 166 | 0.0 | 0.0 | 0.00 | 0.03 | 0.03 | 97 | 950.2 |
| 20260507061002 | 3 | 166 | 0.0 | 0.0 | 0.00 | 0.03 | 0.03 | 97 | 950.2 |
| 20260507060538 | 3 | 166 | 0.0 | 0.0 | 0.00 | 0.03 | 0.03 | 97 | 950.2 |
| 20260507060503 | 3 | 166 | 0.0 | 0.0 | 0.00 | 0.03 | 0.03 | 97 | 950.3 |
| 20260507060038 | 3 | 169 | 0.0 | 0.0 | 0.00 | 0.03 | 0.03 | 97 | 950.3 |
| 20260507060002 | 3 | 169 | 0.0 | 0.0 | 0.00 | 0.03 | 0.03 | 97 | 950.3 |
| 20260507055538 | 3 | 169 | 0.0 | 0.0 | 0.00 | 0.03 | 0.03 | 97 | 950.1 |
| 20260507055503 | 3 | 169 | 0.0 | 0.0 | 0.00 | 0.03 | 0.03 | 97 | 950.2 |
| 20260507055038 | 3 | 169 | 0.0 | 0.0 | 0.00 | 0.03 | 0.03 | 97 | 950.2 |
| 20260507055002 | 3 | 169 | 0.0 | 0.0 | 0.00 | 0.03 | 0.03 | 97 | 950.2 |
| 20260507054538 | 3 | 169 | 0.0 | 0.0 | 0.00 | 0.03 | 0.03 | 97 | 950.1 |
| 20260507054503 | 3 | 169 | 0.0 | 0.0 | 0.00 | 0.03 | 0.03 | 97 | 950.1 |
| 20260507054038 | 3 | 169 | 0.0 | 0.0 | 0.00 | 0.03 | 0.03 | 97 | 950.1 |
| 20260507054003 | 3 | 169 | 0.0 | 0.0 | 0.00 | 0.03 | 0.03 | 97 | 950.2 |
| 20260507053711 | 2 | 169 | 0.0 | 0.0 | 0.00 | 0.03 | 0.03 | 97 | 950.1 |
| 20260507053038 | 2 | 169 | 0.0 | 0.0 | 0.00 | 0.03 | 0.03 | 97 | 950.1 |
| 20260507053003 | 2 | 169 | 0.0 | 0.0 | 0.00 | 0.03 | 0.03 | 97 | 950.1 |
| 20260507052538 | 2 | 169 | 0.0 | 0.0 | 0.00 | 0.03 | 0.03 | 97 | 950.2 |
| 20260507052503 | 2 | 169 | 0.0 | 0.0 | 0.00 | 0.03 | 0.03 | 97 | 950.1 |
| 20260507052038 | 2 | 169 | 0.0 | 0.0 | 0.00 | 0.03 | 0.03 | 97 | 950.0 |
| 20260507052003 | 2 | 169 | 0.0 | 0.0 | 0.00 | 0.03 | 0.03 | 97 | 950.0 |
| 20260507051537 | 2 | 169 | 0.0 | 0.0 | 0.03 | 0.03 | 0.03 | 97 | 950.0 |
| 20260507051503 | 2 | 169 | 0.0 | 0.0 | 0.03 | 0.03 | 0.03 | 97 | 950.0 |
| 20260507051037 | 2 | 169 | 0.0 | 0.0 | 0.03 | 0.03 | 0.03 | 97 | 949.9 |
| 20260507051002 | 2 | 169 | 0.0 | 0.0 | 0.03 | 0.03 | 0.03 | 97 | 950.0 |
| 20260507050537 | 2 | 169 | 0.0 | 0.0 | 0.03 | 0.03 | 0.03 | 97 | 950.0 |
| 20260507050503 | 2 | 169 | 0.0 | 0.0 | 0.03 | 0.03 | 0.03 | 97 | 950.1 |
| 20260507050037 | 2 | 169 | 0.0 | 0.0 | 0.03 | 0.03 | 0.03 | 97 | 950.0 |
| 20260507050002 | 2 | 169 | 0.0 | 0.0 | 0.03 | 0.00 | 0.03 | 97 | 950.0 |
| 20260507045537 | 2 | 169 | 0.0 | 0.0 | 0.03 | 0.00 | 0.03 | 96 | 949.9 |
| 20260507045502 | 2 | 169 | 0.0 | 0.0 | 0.03 | 0.00 | 0.03 | 96 | 949.9 |
| 20260507045036 | 2 | 169 | 0.0 | 0.0 | 0.03 | 0.00 | 0.03 | 96 | 949.9 |
| 20260507045002 | 2 | 169 | 0.0 | 0.0 | 0.03 | 0.00 | 0.03 | 96 | 950.0 |
| 20260507044711 | 2 | 169 | 0.0 | 0.0 | 0.03 | 0.00 | 0.03 | 96 | 950.0 |
| 20260507044034 | 2 | 169 | 0.0 | 0.0 | 0.03 | 0.00 | 0.03 | 96 | 950.0 |
| 20260507044002 | 2 | 169 | 0.0 | 0.0 | 0.03 | 0.00 | 0.03 | 96 | 950.0 |
| 20260507043502 | 3 | 169 | 0.0 | 0.0 | 0.03 | 0.00 | 0.03 | 97 | 949.9 |
| 20260507043003 | 2 | 169 | 0.0 | 0.0 | 0.03 | 0.00 | 0.03 | 96 | 950.0 |
| 20260507042711 | 2 | 169 | 0.0 | 0.0 | 0.03 | 0.00 | 0.03 | 96 | 950.0 |
| 20260507042003 | 2 | 169 | 0.0 | 1.6 | 0.03 | 0.00 | 0.03 | 96 | 950.0 |
| 20260507041530 | 2 | 169 | 0.0 | 1.6 | 0.00 | 0.00 | 0.00 | 96 | 950.0 |
| 20260507041502 | 2 | 169 | 0.0 | 0.0 | 0.00 | 0.00 | 0.00 | 96 | 950.0 |
| 20260507041002 | 2 | 169 | 0.0 | 1.6 | 0.00 | 0.00 | 0.00 | 96 | 949.9 |
| 20260507040502 | 3 | 169 | 0.0 | 1.6 | 0.00 | 0.00 | 0.00 | 96 | 950.0 |
| 20260507040002 | 3 | 166 | 0.0 | 1.6 | 0.00 | 0.00 | 0.00 | 96 | 949.9 |
| 20260507035502 | 3 | 165 | 0.0 | 0.0 | 0.00 | 0.00 | 0.00 | 96 | 949.9 |
| 20260507035212 | 3 | 165 | 0.0 | 0.0 | 0.00 | 0.00 | 0.00 | 96 | 950.1 |
| 20260507034502 | 3 | 165 | 0.0 | 0.0 | 0.00 | 0.00 | 0.00 | 96 | 950.0 |
| 20260507034031 | 2 | 165 | 0.0 | 0.0 | 0.00 | 0.00 | 0.00 | 96 | 950.0 |
| 20260507034002 | 3 | 165 | 0.0 | 0.0 | 0.00 | 0.00 | 0.00 | 96 | 950.0 |
| 20260507033503 | 3 | 165 | 0.0 | 0.0 | 0.00 | 0.00 | 0.00 | 96 | 950.0 |
| 20260507033003 | 3 | 165 | 0.0 | 0.0 | 0.00 | 0.00 | 0.00 | 95 | 949.9 |
| 20260507032502 | 3 | 165 | 0.0 | 0.0 | 0.00 | 0.00 | 0.00 | 95 | 950.0 |
| 20260507032031 | 3 | 165 | 0.0 | 0.0 | 0.00 | 0.00 | 0.00 | 95 | 950.0 |
| 20260507032003 | 3 | 165 | 0.0 | 0.0 | 0.00 | 0.00 | 0.00 | 95 | 950.0 |
| 20260507031503 | 3 | 165 | 0.0 | 0.0 | 0.00 | 0.00 | 0.00 | 96 | 950.0 |
| 20260507031003 | 3 | 165 | 0.0 | 1.6 | 0.00 | 0.00 | 0.00 | 96 | 949.9 |
| 20260507030502 | 4 | 165 | 0.0 | 1.6 | 0.00 | 0.00 | 0.00 | 96 | 949.9 |
| 20260507030003 | 3 | 165 | 0.0 | 0.0 | 0.00 | 0.00 | 0.00 | 96 | 949.9 |
| 20260507025502 | 4 | 165 | 0.0 | 1.6 | 0.00 | 0.00 | 0.00 | 96 | 949.9 |
| 20260507025002 | 3 | 165 | 0.0 | 1.6 | 0.00 | 0.00 | 0.00 | 96 | 949.9 |
| 20260507024502 | 3 | 243 | 0.0 | 1.6 | 0.00 | 0.00 | 0.00 | 95 | 950.0 |
| 20260507024210 | 4 | 243 | 0.0 | 3.2 | 0.00 | 0.00 | 0.00 | 95 | 950.0 |
| 20260507023503 | 4 | 243 | 0.0 | 3.2 | 0.00 | 0.00 | 0.00 | 95 | 950.0 |
| 20260507023002 | 4 | 200 | 0.0 | 1.6 | 0.00 | 0.00 | 0.00 | 96 | 949.9 |
| 20260507022502 | 4 | 200 | 0.0 | 0.0 | 0.00 | 0.00 | 0.00 | 96 | 949.8 |
| 20260507022002 | 4 | 200 | 0.0 | 0.0 | 0.00 | 0.00 | 0.00 | 95 | 949.7 |
| 20260507021503 | 4 | 200 | 0.0 | 0.0 | 0.00 | 0.00 | 0.00 | 95 | 949.8 |
| 20260507021002 | 4 | 200 | 0.0 | 1.6 | 0.00 | 0.00 | 0.00 | 95 | 949.9 |
| 20260507020502 | 4 | 200 | 0.0 | 1.6 | 0.00 | 0.00 | 0.00 | 95 | 950.0 |
| 20260507020003 | 4 | 200 | 0.0 | 1.6 | 0.00 | 0.00 | 0.00 | 95 | 950.0 |
| 20260507015502 | 4 | 200 | 0.0 | 1.6 | 0.00 | 0.00 | 0.00 | 95 | 950.0 |
| 20260507015002 | 4 | 200 | 0.0 | 1.6 | 0.00 | 0.00 | 0.00 | 94 | 950.0 |
| 20260507014503 | 4 | 200 | 0.0 | 1.6 | 0.00 | 0.00 | 0.00 | 93 | 950.0 |
| 20260507014212 | 5 | 149 | 0.0 | 1.6 | 0.00 | 0.00 | 0.00 | 96 | 950.1 |
| 20260507013502 | 5 | 157 | 0.0 | 0.0 | 0.00 | 0.00 | 0.00 | 94 | 950.0 |
| 20260507013002 | 5 | 158 | 0.0 | 1.6 | 0.00 | 0.00 | 0.00 | 94 | 950.1 |
| 20260507012502 | 5 | 152 | 0.0 | 1.6 | 0.00 | 0.00 | 0.00 | 94 | 950.1 |
| 20260507012003 | 5 | 152 | 0.0 | 1.6 | 0.00 | 0.00 | 0.00 | 93 | 950.0 |
| 20260507011503 | 5 | 152 | 0.0 | 1.6 | 0.00 | 0.00 | 0.00 | 94 | 950.1 |
| 20260507011003 | 6 | 152 | 0.0 | 0.0 | 0.00 | 0.00 | 0.00 | 95 | 950.1 |
| 20260507010502 | 5 | 152 | 0.0 | 0.0 | 0.00 | 0.00 | 0.00 | 95 | 950.2 |
| 20260507010003 | 5 | 152 | 0.0 | 0.0 | 0.00 | 0.00 | 0.00 | 94 | 950.2 |
| 20260507005502 | 5 | 152 | 0.0 | 1.6 | 0.00 | 0.00 | 0.00 | 94 | 950.3 |
| 20260507005002 | 5 | 152 | 0.0 | 1.6 | 0.00 | 0.00 | 0.00 | 94 | 950.3 |
| 20260507004502 | 5 | 152 | 0.0 | 0.0 | 0.00 | 0.00 | 0.00 | 94 | 950.4 |
| 20260507004002 | 6 | 152 | 0.0 | 0.0 | 0.00 | 0.00 | 0.00 | 94 | 950.4 |
| 20260507003500 | 6 | 152 | 0.0 | 0.0 | 0.00 | 0.00 | 0.00 | 95 | 950.4 |
| 20260507002957 | 6 | 151 | 0.0 | 0.0 | 0.00 | 0.00 | 0.00 | 95 | 950.4 |
| 20260507002431 | 6 | 151 | 0.0 | 0.0 | 0.00 | 0.00 | 0.00 | 94 | 950.5 |
| 20260507002141 | 6 | 152 | 0.0 | 0.0 | 0.00 | 0.00 | 0.00 | 95 | 950.5 |
| 20260507001431 | 6 | 152 | 0.0 | 0.0 | 0.00 | 0.00 | 0.00 | 94 | 950.7 |
| 20260507000931 | 6 | 151 | 0.0 | 0.0 | 0.00 | 0.00 | 0.00 | 94 | 950.6 |
| 20260507000431 | 6 | 151 | 0.0 | 0.0 | 0.00 | 0.00 | 0.00 | 94 | 950.6 |
| 20260506235930 | 6 | 151 | 0.0 | 0.0 | 0.00 | 0.00 | 0.00 | 94 | 950.6 |
| 20260506235430 | 6 | 151 | 0.0 | 0.0 | 0.00 | 0.00 | 0.00 | 94 | 950.7 |
| 20260506234930 | 6 | 212 | 0.0 | 0.0 | 0.00 | 0.00 | 0.00 | 94 | 950.6 |
| 20260506234431 | 6 | 212 | 0.0 | 1.6 | 0.00 | 0.00 | 0.00 | 94 | 950.7 |
| 20260506233930 | 6 | 212 | 0.0 | 1.6 | 0.00 | 0.00 | 0.00 | 93 | 950.7 |
| 20260506233430 | 6 | 237 | 0.0 | 3.2 | 0.00 | 0.00 | 0.00 | 93 | 950.6 |
| 20260506232930 | 6 | 237 | 0.0 | 3.2 | 0.00 | 0.00 | 0.00 | 93 | 950.7 |
| 20260506232638 | 6 | 178 | 0.0 | 1.6 | 0.00 | 0.00 | 0.00 | 93 | 950.7 |
| 20260506231930 | 6 | 142 | 0.0 | 0.0 | 0.00 | 0.00 | 0.00 | 92 | 950.6 |
| 20260506231429 | 6 | 142 | 0.0 | 1.6 | 0.00 | 0.00 | 0.00 | 92 | 950.7 |
| 20260506230929 | 6 | 141 | 0.0 | 1.6 | 0.00 | 0.00 | 0.00 | 91 | 950.7 |
| 20260506230430 | 6 | 154 | 0.0 | 0.0 | 0.00 | 0.00 | 0.00 | 92 | 950.6 |
| 20260506225929 | 6 | 155 | 0.0 | 1.6 | 0.00 | 0.00 | 0.00 | 91 | 950.7 |
| 20260506225430 | 6 | 155 | 0.0 | 1.6 | 0.00 | 0.00 | 0.00 | 92 | 950.9 |
| 20260506224929 | 7 | 155 | 0.0 | 1.6 | 0.00 | 0.00 | 0.00 | 91 | 951.0 |
| 20260506224637 | 7 | 155 | 0.0 | 1.6 | 0.00 | 0.00 | 0.00 | 92 | 951.0 |